Weather History for Tekamah, NE

Change the Weather History Date:

Tuesday, October 8, 2013

  Actual Average Record
Temperature  
Mean Temperature 62 °F -  
Max Temperature 81 °F 69 °F 93 °F (2010)
Min Temperature 45 °F 41 °F 17 °F (2000)
Degree Days  
Heating Degree Days 3    
Growing Degree Days 12 (Base 50)    
Moisture  
Dew Point 43 °F    
Average Humidity 53    
Maximum Humidity 86    
Minimum Humidity 27    
Precipitation  
Precipitation 0.00 in - - ()
Sea Level Pressure  
Sea Level Pressure 29.91 in    
Wind  
Wind Speed 10 mph (SSE)    
Max Wind Speed 23 mph    
Max Gust Speed 32 mph    
Visibility 10 miles    
Events      
Averages and records for this station are not official NWS values.
T = Trace of Precipitation, MM = Missing Value Source: NWS Daily Summary

Daily Weather History Graph

Daily Weather History Graph

Search for Another Location

Airport:

Trip Planner

Search our weather history database for the weather conditions in past years. The results will help you decide how hot, cold, wet, or windy it might be!

Date:

Astronomy

Oct. 08, 2013 Rise Set
Actual Time 7:29 AM CDT 6:54 PM CDT
Civil Twilight 7:01 AM CDT 7:21 PM CDT
Nautical Twilight 6:29 AM CDT 7:54 PM CDT
Astronomical Twilight 5:57 AM CDT 8:26 PM CDT
Moon 11:28 AM CDT (10/8) 9:28 PM CDT (10/8)
Length of Visible Light 12h 20m
Length of Day
11h 24m
Waxing Crescent, 16% of the Moon is Illuminated
Oct 8
Waxing Crescent
Oct 11
First Quarter
Oct 18
Full
Oct 26
Last Quarter
Nov 3
New

Hourly Weather History & Observations

Time (CDT) Temp. Windchill Dew Point Humidity Pressure Visibility Wind Dir Wind Speed Gust Speed Precip Events Conditions
12:54 AM 45.0 °F 42.6 °F 39.9 °F 82% 29.95 in 10.0 mi SSE 4.6 mph - N/A   Clear
1:54 AM 50.0 °F - 42.1 °F 74% 29.95 in 10.0 mi SSE 6.9 mph - N/A   Clear
2:54 AM 48.9 °F - 42.1 °F 77% 29.94 in 10.0 mi SE 8.1 mph - N/A   Clear
3:54 AM 48.9 °F - 41.0 °F 74% 29.94 in 10.0 mi SE 5.8 mph - N/A   Clear
4:54 AM 46.9 °F - 41.0 °F 80% 29.95 in 10.0 mi SE 5.8 mph - N/A   Clear
5:54 AM 46.0 °F 42.5 °F 41.0 °F 83% 29.95 in 10.0 mi SE 6.9 mph - N/A   Clear
6:54 AM 45.0 °F 41.2 °F 41.0 °F 86% 29.96 in 10.0 mi SE 6.9 mph - N/A   Clear
7:54 AM 46.0 °F 43.1 °F 41.0 °F 83% 29.96 in 10.0 mi SE 5.8 mph - N/A   Clear
8:54 AM 53.1 °F - 44.1 °F 71% 29.96 in 10.0 mi SSE 9.2 mph - N/A   Clear
9:54 AM 62.1 °F - 43.0 °F 50% 29.95 in 10.0 mi South 15.0 mph 20.7 mph N/A   Clear
10:54 AM 68.0 °F - 42.1 °F 39% 29.94 in 10.0 mi South 16.1 mph 23.0 mph N/A   Clear
11:54 AM 72.0 °F - 42.1 °F 34% 29.91 in 10.0 mi SSW 20.7 mph 25.3 mph N/A   Clear
12:54 PM 75.9 °F - 42.1 °F 30% 29.90 in 10.0 mi South 18.4 mph 32.2 mph N/A   Clear
1:54 PM 79.0 °F - 42.1 °F 27% 29.87 in 10.0 mi South 23.0 mph 32.2 mph N/A   Clear
2:54 PM 79.0 °F - 43.0 °F 28% 29.85 in 10.0 mi South 23.0 mph 29.9 mph N/A   Clear
3:54 PM 79.0 °F - 43.0 °F 28% 29.84 in 10.0 mi South 19.6 mph 27.6 mph N/A   Clear
4:54 PM 78.1 °F - 44.1 °F 30% 29.84 in 10.0 mi South 17.3 mph 25.3 mph N/A   Clear
5:54 PM 75.0 °F - 45.0 °F 34% 29.84 in 10.0 mi South 13.8 mph 21.9 mph N/A   Clear
6:54 PM 72.0 °F - 44.1 °F 37% 29.85 in 10.0 mi SSE 13.8 mph 20.7 mph N/A   Clear
7:54 PM 69.1 °F - 44.1 °F 40% 29.87 in 10.0 mi SSE 11.5 mph - N/A   Clear
8:54 PM 66.9 °F - 44.1 °F 44% 29.88 in 10.0 mi SSE 12.7 mph - N/A   Clear
9:54 PM 66.0 °F - 44.1 °F 45% 29.89 in 10.0 mi SSE 10.4 mph - N/A   Clear
10:54 PM 64.0 °F - 45.0 °F 50% 29.91 in 10.0 mi South 9.2 mph - N/A   Clear
11:54 PM 64.0 °F - 45.0 °F 50% 29.92 in 10.0 mi South 10.4 mph - N/A   Clear